Orbital Elements
Epoch 2021 July 5.0 TT = JDT 2459400.5
T 2021 July 25.82631 TT Rudenko
q 1.9174999 (2000.0) P Q
n 0.09044087 Peri. 111.42868 +0.49507792 -0.81787042
a 4.9154080 Node 305.48293 +0.60209211 +0.56626956
e 0.6099002 Incl. 21.10695 +0.62640478 +0.10211154
P 10.9
From 550 observations 1999 Oct. 30-2021 July 17, mean residual 1".5.
|